• In Deutschland
  • Länderverzeichnis
  • Für 7 Tage
  • Wassertemperatur
  • Satellitenkarten
  • Wetterkarte
  • Widgets
  • user-avatar
    Anmelden

    Stündliche Wetter Ascheffel

    Heute, 13 Dezember, Mittwoch

    Zeit Temperatur Niederschläge Wind Luftdruck Luftfeuchtigkeit
    00:00 -1°C° 0 mm 7 m/S 753 mmHg 88%
    01:00 -2°C° 0 mm 8 m/S 753 mmHg 89%
    02:00 -2°C° 0 mm 8 m/S 753 mmHg 89%
    03:00 -2°C° 0 mm 8 m/S 753 mmHg 89%
    04:00 -2°C° 0 mm 8 m/S 753 mmHg 90%
    05:00 -2°C° 0 mm 8 m/S 752 mmHg 90%
    06:00 -2°C° 0 mm 8 m/S 752 mmHg 89%
    07:00 -2°C° 0 mm 8 m/S 751 mmHg 89%
    08:00 -3°C° 0,1 mm 9 m/S 750 mmHg 89%
    09:00 -3°C° 0,1 mm 9 m/S 750 mmHg 89%
    10:00 -3°C° 0,1 mm 10 m/S 749 mmHg 89%
    11:00 -3°C° 0,4 mm 10 m/S 748 mmHg 89%
    12:00 -2°C° 0,4 mm 10 m/S 747 mmHg 90%
    13:00 -2°C° 0,4 mm 10 m/S 746 mmHg 91%
    14:00 -2°C° 1 mm 10 m/S 744 mmHg 92%
    15:00 -1°C° 1 mm 9 m/S 743 mmHg 92%
    16:00 -1°C° 1 mm 9 m/S 742 mmHg 93%
    17:00 0°C° 0,8 mm 8 m/S 741 mmHg 94%
    18:00 0°C° 0,8 mm 8 m/S 740 mmHg 95%
    19:00 0°C° 0,8 mm 7 m/S 739 mmHg 96%
    20:00 0°C° 0,1 mm 7 m/S 738 mmHg 97%
    21:00 0°C° 0,1 mm 7 m/S 737 mmHg 97%
    22:00 0°C° 0,1 mm 7 m/S 736 mmHg 97%
    23:00 +2°C° 0,9 mm 7 m/S 735 mmHg 96%

    Morgen, 14 Dezember, Donnerstag

    Zeit Temperatur Niederschläge Wind Luftdruck Luftfeuchtigkeit
    00:00 +1°C° 0,9 mm 8 m/S 734 mmHg 95%
    01:00 +1°C° 0,9 mm 8 m/S 733 mmHg 95%
    02:00 +1°C° 0,7 mm 9 m/S 733 mmHg 89%
    03:00 +1°C° 0,7 mm 9 m/S 732 mmHg 83%
    04:00 +1°C° 0,7 mm 10 m/S 732 mmHg 77%
    05:00 +1°C° 0 mm 9 m/S 733 mmHg 76%
    06:00 +1°C° 0 mm 9 m/S 734 mmHg 76%
    07:00 0°C° 0 mm 8 m/S 734 mmHg 75%
    08:00 0°C° 0,1 mm 8 m/S 735 mmHg 75%
    09:00 0°C° 0,1 mm 8 m/S 735 mmHg 75%
    10:00 0°C° 0,1 mm 8 m/S 736 mmHg 74%
    11:00 0°C° 0,2 mm 8 m/S 736 mmHg 74%
    12:00 +1°C° 0,2 mm 9 m/S 736 mmHg 73%
    13:00 +1°C° 0,2 mm 9 m/S 737 mmHg 73%
    14:00 +1°C° 0,5 mm 9 m/S 737 mmHg 74%
    15:00 +1°C° 0,5 mm 10 m/S 736 mmHg 75%
    16:00 +1°C° 0,5 mm 10 m/S 736 mmHg 76%
    17:00 +1°C° 0,3 mm 10 m/S 736 mmHg 76%
    18:00 +1°C° 0,3 mm 9 m/S 736 mmHg 77%
    19:00 +1°C° 0,3 mm 9 m/S 736 mmHg 78%
    20:00 0°C° 0,2 mm 9 m/S 736 mmHg 79%
    21:00 0°C° 0,2 mm 9 m/S 736 mmHg 79%
    22:00 0°C° 0,2 mm 8 m/S 736 mmHg 80%
    23:00 0°C° 0,1 mm 8 m/S 736 mmHg 81%

    übermorgen, 15 Dezember, Freitag

    Zeit Temperatur Niederschläge Wind Luftdruck Luftfeuchtigkeit
    00:00 0°C° 0,1 mm 8 m/S 737 mmHg 81%
    01:00 0°C° 0,1 mm 8 m/S 737 mmHg 82%
    02:00 0°C° 0,1 mm 7 m/S 737 mmHg 83%
    03:00 0°C° 0,1 mm 7 m/S 737 mmHg 83%
    04:00 0°C° 0,1 mm 7 m/S 738 mmHg 84%
    05:00 0°C° 0,1 mm 7 m/S 738 mmHg 84%
    06:00 +2°C° 0,1 mm 7 m/S 738 mmHg 84%
    07:00 +2°C° 0,1 mm 7 m/S 739 mmHg 84%
    08:00 +2°C° 0 mm 7 m/S 739 mmHg 84%
    09:00 +2°C° 0 mm 7 m/S 740 mmHg 84%
    10:00 +2°C° 0 mm 7 m/S 740 mmHg 84%
    11:00 +3°C° 0,1 mm 7 m/S 740 mmHg 82%
    12:00 +3°C° 0,1 mm 7 m/S 741 mmHg 81%
    13:00 +3°C° 0,1 mm 7 m/S 741 mmHg 79%
    14:00 +3°C° 0,1 mm 6 m/S 741 mmHg 80%
    15:00 +3°C° 0,1 mm 6 m/S 742 mmHg 81%
    16:00 +2°C° 0,1 mm 5 m/S 742 mmHg 82%
    17:00 +2°C° 0,1 mm 5 m/S 742 mmHg 82%
    18:00 +1°C° 0,1 mm 5 m/S 743 mmHg 82%
    19:00 +1°C° 0,1 mm 4 m/S 743 mmHg 82%
    20:00 +1°C° 0 mm 4 m/S 743 mmHg 83%
    21:00 +1°C° 0 mm 4 m/S 743 mmHg 83%
    22:00 0°C° 0 mm 4 m/S 744 mmHg 83%
    23:00 +1°C° 0,2 mm 4 m/S 744 mmHg 83%

    16 Dezember, Samstag

    Zeit Temperatur Niederschläge Wind Luftdruck Luftfeuchtigkeit
    00:00 +1°C° 0,2 mm 4 m/S 744 mmHg 83%
    01:00 +1°C° 0,2 mm 4 m/S 744 mmHg 83%
    02:00 +1°C° 0,1 mm 4 m/S 744 mmHg 84%
    03:00 +1°C° 0,1 mm 4 m/S 744 mmHg 84%
    04:00 0°C° 0,1 mm 4 m/S 744 mmHg 84%
    05:00 0°C° 0,2 mm 4 m/S 744 mmHg 84%
    06:00 0°C° 0,2 mm 4 m/S 744 mmHg 85%
    07:00 0°C° 0,2 mm 4 m/S 745 mmHg 85%
    08:00 0°C° 0,2 mm 4 m/S 745 mmHg 86%
    09:00 0°C° 0,2 mm 4 m/S 746 mmHg 86%
    10:00 0°C° 0,2 mm 5 m/S 747 mmHg 87%
    11:00 +1°C° 0 mm 5 m/S 747 mmHg 85%
    12:00 +1°C° 0 mm 5 m/S 748 mmHg 83%
    13:00 +1°C° 0 mm 6 m/S 749 mmHg 81%
    14:00 +1°C° 0,1 mm 6 m/S 749 mmHg 81%
    15:00 0°C° 0,1 mm 5 m/S 750 mmHg 82%
    16:00 0°C° 0,1 mm 5 m/S 751 mmHg 82%
    17:00 -1°C° 0 mm 5 m/S 752 mmHg 83%
    18:00 -1°C° 0 mm 4 m/S 753 mmHg 84%
    19:00 -1°C° 0 mm 4 m/S 754 mmHg 85%
    20:00 -2°C° 0 mm 4 m/S 755 mmHg 84%
    21:00 -1°C° 0 mm 3 m/S 756 mmHg 84%
    22:00 -1°C° 0 mm 3 m/S 756 mmHg 84%
    23:00 -1°C° 0 mm 3 m/S 757 mmHg 84%

    17 Dezember, Sonntag

    Zeit Temperatur Niederschläge Wind Luftdruck Luftfeuchtigkeit
    00:00 -1°C° 0 mm 2 m/S 757 mmHg 83%
    01:00 -1°C° 0 mm 2 m/S 758 mmHg 83%
    02:00 -1°C° 0 mm 2 m/S 758 mmHg 83%
    03:00 +1°C° 0 mm 2 m/S 759 mmHg 82%
    04:00 +1°C° 0 mm 2 m/S 759 mmHg 82%
    05:00 +1°C° 0 mm 2 m/S 760 mmHg 83%
    06:00 +1°C° 0 mm 2 m/S 760 mmHg 83%
    07:00 +1°C° 0 mm 2 m/S 761 mmHg 84%
    08:00 +1°C° 0 mm 2 m/S 761 mmHg 83%
    09:00 +2°C° 0 mm 1 m/S 762 mmHg 82%
    10:00 +3°C° 0 mm 1 m/S 762 mmHg 81%
    11:00 +2°C° 0 mm 2 m/S 763 mmHg 80%
    12:00 +3°C° 0 mm 2 m/S 763 mmHg 79%
    13:00 +4°C° 0 mm 2 m/S 763 mmHg 77%
    14:00 +2°C° 0 mm 3 m/S 763 mmHg 80%
    15:00 +2°C° 0 mm 3 m/S 764 mmHg 83%
    16:00 +1°C° 0 mm 3 m/S 764 mmHg 85%
    17:00 +1°C° 0 mm 3 m/S 764 mmHg 85%
    18:00 +1°C° 0 mm 3 m/S 764 mmHg 85%
    19:00 +1°C° 0 mm 3 m/S 764 mmHg 85%
    20:00 +1°C° 0 mm 3 m/S 764 mmHg 85%
    21:00 0°C° 0 mm 4 m/S 764 mmHg 85%
    22:00 0°C° 0 mm 4 m/S 764 mmHg 85%
    23:00 +1°C° 0 mm 4 m/S 764 mmHg 86%

    18 Dezember, Montag

    Zeit Temperatur Niederschläge Wind Luftdruck Luftfeuchtigkeit
    00:00 +1°C° 0 mm 5 m/S 763 mmHg 87%
    01:00 +1°C° 0 mm 5 m/S 763 mmHg 87%
    02:00 +1°C° 0 mm 6 m/S 763 mmHg 88%
    03:00 +1°C° 0 mm 6 m/S 762 mmHg 90%
    04:00 -1°C° 0 mm 6 m/S 762 mmHg 91%
    05:00 -1°C° 0,1 mm 6 m/S 761 mmHg 91%
    06:00 -1°C° 0,1 mm 6 m/S 760 mmHg 91%
    07:00 -1°C° 0,1 mm 6 m/S 760 mmHg 92%
    08:00 -1°C° 0,2 mm 6 m/S 760 mmHg 92%
    09:00 -1°C° 0,2 mm 6 m/S 760 mmHg 92%
    10:00 0°C° 0,2 mm 5 m/S 760 mmHg 92%
    11:00 +1°C° 0,1 mm 5 m/S 760 mmHg 91%
    12:00 +1°C° 0,1 mm 4 m/S 760 mmHg 91%
    13:00 +1°C° 0,1 mm 4 m/S 760 mmHg 91%
    14:00 +2°C° 0,1 mm 3 m/S 760 mmHg 92%
    15:00 +2°C° 0,1 mm 3 m/S 760 mmHg 93%
    16:00 +3°C° 0,1 mm 2 m/S 760 mmHg 95%
    17:00 +3°C° 0 mm 2 m/S 761 mmHg 94%
    18:00 +3°C° 0 mm 2 m/S 761 mmHg 94%
    19:00 +2°C° 0 mm 3 m/S 762 mmHg 93%
    20:00 +2°C° 0 mm 3 m/S 762 mmHg 92%
    21:00 +2°C° 0 mm 3 m/S 763 mmHg 91%
    22:00 +2°C° 0 mm 3 m/S 763 mmHg 90%
    23:00 +2°C° 0 mm 3 m/S 764 mmHg 90%
    Mehr zeigen